Weather History for KNCA - April, 2012

Change the Weather History Date:

Saturday, April 7, 2012

  Actual Average Record
Temperature  
Mean Temperature 50 °F -  
Max Temperature 64 °F 70 °F 87 °F (2001)
Min Temperature 35 °F 48 °F 30 °F (2007)
Degree Days  
Heating Degree Days 16    
Moisture  
Dew Point 34 °F    
Average Humidity 66    
Maximum Humidity 100    
Minimum Humidity 23    
Precipitation  
Precipitation 0.00 in - - ()
Sea Level Pressure  
Sea Level Pressure 30.16 in    
Wind  
Wind Speed 4 mph (NW)    
Max Wind Speed 16 mph    
Max Gust Speed 20 mph    
Visibility 9 miles    
Events Fog    
Averages and records for this station are not official NWS values.
T = Trace of Precipitation, MM = Missing Value Source: NWS Daily Summary

Daily Weather History Graph

Daily Weather History Graph

Search for Another Location

Airport or City:

Trip Planner

Search our weather history database for the weather conditions in past years. The results will help you decide how hot, cold, wet, or windy it might be!

Date:

Astronomy

Apr. 07, 2012 Rise Set
Actual Time 6:47 AM EDT 7:36 PM EDT
Civil Twilight 6:22 AM EDT 8:01 PM EDT
Nautical Twilight 5:52 AM EDT 8:31 PM EDT
Astronomical Twilight 5:21 AM EDT 9:03 PM EDT
Moon 9:01 PM EDT (4/7) 7:02 AM EDT (4/7)
Length of Visible Light 13h 39m
Length of Day
12h 48m
Full, 99% of the Moon is Illuminated
Apr 7
Full
Apr 13
Last Quarter
Apr 21
New
Apr 29
First Quarter
May 5
Full

Hourly Weather History & Observations

Time (EDT) Temp. Windchill Dew Point Humidity Pressure Visibility Wind Dir Wind Speed Gust Speed Precip Events Conditions
12:56 AM 41.0 °F - 39.0 °F 93% 30.09 in 10.0 mi Calm Calm - N/A   Clear
1:56 AM 37.9 °F - 37.0 °F 97% 30.09 in 8.0 mi Calm Calm - N/A   Clear
1:59 AM 37.4 °F - 37.4 °F 100% 30.08 in 1.0 mi Calm Calm - N/A   Mist
2:01 AM 37.4 °F - 37.4 °F 100% 30.08 in 0.5 mi Calm Calm - N/A Fog Fog
2:12 AM 37.4 °F 31.4 °F 37.4 °F 100% 30.08 in 1.0 mi West 8.1 mph - N/A   Mist
2:15 AM 37.4 °F 32.1 °F 37.4 °F 100% 30.08 in 2.0 mi West 6.9 mph - N/A   Partly Cloudy
2:22 AM 37.4 °F 32.1 °F 37.4 °F 100% 30.08 in 10.0 mi West 6.9 mph - N/A   Partly Cloudy
2:56 AM 37.9 °F 35.5 °F 35.1 °F 89% 30.10 in 10.0 mi West 3.5 mph - N/A   Clear
3:56 AM 37.9 °F 35.5 °F 34.0 °F 86% 30.11 in 10.0 mi WNW 3.5 mph - N/A   Clear
4:56 AM 37.0 °F - 35.1 °F 93% 30.12 in 10.0 mi Calm Calm - N/A   Clear
5:56 AM 36.0 °F - 33.1 °F 89% 30.14 in 10.0 mi Calm Calm - N/A   Clear
6:56 AM 35.1 °F - 34.0 °F 96% 30.16 in 10.0 mi Calm Calm - N/A   Clear
7:56 AM 39.9 °F - 35.1 °F 83% 30.19 in 10.0 mi Calm Calm - N/A   Clear
8:56 AM 48.0 °F - 35.1 °F 61% 30.22 in 10.0 mi North 6.9 mph - N/A   Clear
9:56 AM 52.0 °F - 33.1 °F 49% 30.25 in 10.0 mi North 11.5 mph - N/A   Clear
10:56 AM 55.9 °F - 27.0 °F 33% 30.26 in 10.0 mi NNE 15.0 mph - N/A   Clear
11:56 AM 60.1 °F - 30.0 °F 32% 30.25 in 10.0 mi NNE 12.7 mph - N/A   Clear
12:56 PM 61.0 °F - 27.0 °F 27% 30.24 in 10.0 mi NNW 13.8 mph - N/A   Clear
1:56 PM 62.1 °F - 25.0 °F 24% 30.22 in 10.0 mi NW 10.4 mph 18.4 mph N/A   Clear
2:56 PM 64.0 °F - 26.1 °F 24% 30.20 in 10.0 mi NW 16.1 mph 19.6 mph N/A   Clear
3:56 PM 64.0 °F - 25.0 °F 23% 30.17 in 10.0 mi North 12.7 mph - N/A   Clear
4:56 PM 64.0 °F - 25.0 °F 23% 30.16 in 10.0 mi North 8.1 mph - N/A   Clear
5:56 PM 64.0 °F - 26.1 °F 24% 30.16 in 10.0 mi WNW 6.9 mph - N/A   Clear
6:56 PM 62.1 °F - 28.0 °F 28% 30.15 in 10.0 mi WNW 8.1 mph - N/A   Clear
7:56 PM 54.0 °F - 36.0 °F 51% 30.17 in 10.0 mi Calm Calm - N/A   Clear
8:56 PM 48.0 °F - 42.1 °F 80% 30.19 in 10.0 mi Calm Calm - N/A   Clear
9:56 PM 46.0 °F - 39.9 °F 79% 30.20 in 10.0 mi Calm Calm - N/A   Clear
10:56 PM 50.0 °F - 39.9 °F 68% 30.20 in 10.0 mi SW 6.9 mph - N/A   Clear
11:56 PM 48.9 °F - 41.0 °F 74% 30.19 in 10.0 mi SW 4.6 mph - N/A   Clear